User: anonymous   Login
Location: Caltech
(34.1382°N, 118.1253°W)
Time: 18:46:57
(UTC-07:00)
Language:

Cosmos 1937 Rocket - Orbit

View from above orbital plane
View from above orbital plane
View from above satellite
View from above satellite

Ground track
Ground track

The orbit data is extracted from the following two-line orbital elements,

1 19039U 88029B   15116.46250233  .00000246  00000-0  89379-4 0  9990
2 19039 074.0471 300.6587 0024482 306.5798 076.9702 14.38198035418325
Epoch (UTC): 26 April 2015 11:06:00
Eccentricity: 0.0024482
inclination: 74.0471°
perigee height: 747 km
apogee height: 782 km
right ascension of ascending node: 300.6587°
argument of perigee: 306.5798°
revolutions per day: 14.38198035
mean anomaly at epoch: 76.9702°
orbit number at epoch: 41832

The dashed part of the orbit path shows where the satellite is in the earth's shadow,  

DLR